Time,TemperatureF,DewpointF,PressureIn,WindDirection,WindDirectionDegrees,WindSpeedMPH,WindSpeedGustMPH,Humidity,HourlyPrecipIn,Conditions,Clouds,dailyrainin,SoftwareType,DateUTC
2013-08-17 00:00:00,57.5,57.5,29.88,West,263,0.0,0.0,100,0.00,,,0.00,Wunderground v.1.12,2013-08-17 07:00:00,
2013-08-17 00:10:00,58.1,58.1,29.88,West,262,0.0,0.0,100,0.00,,,0.00,Wunderground v.1.12,2013-08-17 07:10:00,
2013-08-17 00:20:00,57.8,57.8,29.88,West,261,0.0,0.0,100,0.00,,,0.00,Wunderground v.1.12,2013-08-17 07:20:00,
2013-08-17 00:30:00,56.9,56.9,29.88,West,262,0.0,0.0,100,0.00,,,0.00,Wunderground v.1.12,2013-08-17 07:30:00,
2013-08-17 00:40:00,56.3,56.3,29.87,West,262,0.0,0.0,100,0.00,,,0.00,Wunderground v.1.12,2013-08-17 07:40:00,
2013-08-17 00:50:00,55.9,55.9,29.87,West,262,0.0,0.0,100,0.00,,,0.00,Wunderground v.1.12,2013-08-17 07:50:00,
2013-08-17 01:00:00,55.7,55.7,29.87,West,262,0.0,0.0,100,0.00,,,0.00,Wunderground v.1.12,2013-08-17 08:00:00,
2013-08-17 01:10:00,55.4,55.4,29.87,SSW,205,0.0,0.0,100,0.00,,,0.00,Wunderground v.1.12,2013-08-17 08:10:00,
2013-08-17 01:20:00,55.0,55.0,29.87,SSW,205,0.0,0.0,100,0.00,,,0.00,Wunderground v.1.12,2013-08-17 08:20:00,
2013-08-17 01:30:00,54.7,54.7,29.87,SSW,205,0.0,0.0,100,0.00,,,0.00,Wunderground v.1.12,2013-08-17 08:30:00,
2013-08-17 01:40:00,54.5,54.5,29.86,SSW,205,0.0,0.0,100,0.00,,,0.00,Wunderground v.1.12,2013-08-17 08:40:00,
2013-08-17 01:50:00,54.1,54.1,29.86,SSW,205,0.0,0.0,100,0.00,,,0.00,Wunderground v.1.12,2013-08-17 08:50:00,
2013-08-17 02:00:00,53.8,53.8,29.86,SSW,205,0.0,0.0,100,0.00,,,0.00,Wunderground v.1.12,2013-08-17 09:00:00,
2013-08-17 02:10:00,53.8,53.8,29.86,SSW,205,0.0,0.0,100,0.00,,,0.00,Wunderground v.1.12,2013-08-17 09:10:00,
2013-08-17 02:20:00,53.3,53.3,29.86,SSW,205,0.0,0.0,100,0.00,,,0.00,Wunderground v.1.12,2013-08-17 09:20:00,
2013-08-17 02:30:00,52.9,52.9,29.86,SSW,205,0.0,0.0,100,0.00,,,0.00,Wunderground v.1.12,2013-08-17 09:30:00,
2013-08-17 02:40:00,52.9,52.9,29.86,SSW,205,0.0,0.0,100,0.00,,,0.00,Wunderground v.1.12,2013-08-17 09:40:00,
2013-08-17 02:50:00,52.6,52.6,29.86,SSW,205,0.0,0.0,100,0.00,,,0.00,Wunderground v.1.12,2013-08-17 09:50:00,
2013-08-17 03:00:00,52.3,52.3,29.86,SSW,205,0.0,0.0,100,0.00,,,0.00,Wunderground v.1.12,2013-08-17 10:00:00,
2013-08-17 03:10:00,52.0,52.0,29.86,SSW,205,0.0,0.0,100,0.00,,,0.00,Wunderground v.1.12,2013-08-17 10:10:00,
2013-08-17 03:20:00,52.0,52.0,29.86,SSW,205,0.0,0.0,100,0.00,,,0.00,Wunderground v.1.12,2013-08-17 10:20:00,
2013-08-17 03:30:00,52.2,52.2,29.86,ESE,112,0.0,0.0,100,0.00,,,0.00,Wunderground v.1.12,2013-08-17 10:30:00,
2013-08-17 03:40:00,51.9,51.9,29.86,ESE,112,0.0,0.0,100,0.00,,,0.00,Wunderground v.1.12,2013-08-17 10:40:00,
2013-08-17 03:50:00,51.7,51.7,29.86,ESE,112,0.0,0.0,100,0.00,,,0.00,Wunderground v.1.12,2013-08-17 10:50:00,
2013-08-17 04:00:00,52.6,52.6,29.86,ESE,111,0.0,0.0,100,0.00,,,0.00,Wunderground v.1.12,2013-08-17 11:00:00,
2013-08-17 04:10:00,52.6,52.6,29.86,ESE,112,0.0,0.0,100,0.00,,,0.00,Wunderground v.1.12,2013-08-17 11:10:00,
2013-08-17 04:20:00,52.6,52.6,29.86,ESE,112,0.0,0.0,100,0.00,,,0.00,Wunderground v.1.12,2013-08-17 11:20:00,
2013-08-17 04:30:00,52.2,52.2,29.86,ESE,112,0.0,0.0,100,0.00,,,0.00,Wunderground v.1.12,2013-08-17 11:30:00,
2013-08-17 04:40:00,52.3,52.3,29.86,ESE,112,0.0,0.0,100,0.00,,,0.00,Wunderground v.1.12,2013-08-17 11:40:00,
2013-08-17 04:50:00,52.2,52.2,29.86,ESE,112,0.0,0.0,100,0.00,,,0.00,Wunderground v.1.12,2013-08-17 11:50:00,
2013-08-17 05:00:00,52.2,52.2,29.86,ESE,112,0.0,0.0,100,0.00,,,0.00,Wunderground v.1.12,2013-08-17 12:00:00,
2013-08-17 05:10:00,52.0,52.0,29.86,ESE,112,0.0,0.0,100,0.00,,,0.00,Wunderground v.1.12,2013-08-17 12:10:00,
2013-08-17 05:20:00,52.0,52.0,29.86,ESE,112,0.0,0.0,100,0.00,,,0.00,Wunderground v.1.12,2013-08-17 12:20:00,
2013-08-17 05:23:00,52.0,52.0,29.86,ESE,112,0.0,1.0,100,0.00,,,-99.99,WeatherLink 5.8.2,2013-08-17 12:23:00,
2013-08-17 05:30:00,51.9,51.9,29.86,ESE,112,0.0,0.0,100,0.00,,,0.00,Wunderground v.1.12,2013-08-17 12:30:00,
2013-08-17 05:40:00,51.6,51.6,29.86,ESE,112,0.0,0.0,100,0.00,,,0.00,Wunderground v.1.12,2013-08-17 12:40:00,
2013-08-17 05:50:00,51.3,51.3,29.86,ESE,111,0.0,0.0,100,0.00,,,0.00,Wunderground v.1.12,2013-08-17 12:50:00,
2013-08-17 06:00:00,51.4,51.4,29.86,ESE,102,0.0,0.0,100,0.00,,,0.00,Wunderground v.1.12,2013-08-17 13:00:00,
2013-08-17 06:10:00,51.1,51.1,29.86,ESE,102,0.0,0.0,100,0.00,,,0.00,Wunderground v.1.12,2013-08-17 13:10:00,
2013-08-17 06:20:00,50.5,50.5,29.86,ESE,102,0.0,2.0,100,0.00,,,0.00,Wunderground v.1.12,2013-08-17 13:20:00,
2013-08-17 06:30:00,50.2,50.2,29.86,ESE,102,0.0,0.0,100,0.00,,,0.00,Wunderground v.1.12,2013-08-17 13:30:00,
2013-08-17 06:40:00,50.5,50.5,29.87,ESE,102,0.0,0.0,100,0.00,,,0.00,Wunderground v.1.12,2013-08-17 13:40:00,
2013-08-17 06:50:00,50.2,50.2,29.87,ESE,102,0.0,0.0,100,0.00,,,0.00,Wunderground v.1.12,2013-08-17 13:50:00,
2013-08-17 07:00:00,50.1,50.1,29.87,ESE,102,0.0,0.0,100,0.00,,,0.00,Wunderground v.1.12,2013-08-17 14:00:00,
2013-08-17 07:10:00,50.4,50.4,29.87,ESE,102,0.0,0.0,100,0.00,,,0.00,Wunderground v.1.12,2013-08-17 14:10:00,
2013-08-17 07:20:00,51.0,51.0,29.88,ENE,64,0.0,0.0,100,0.00,,,0.00,Wunderground v.1.12,2013-08-17 14:20:00,
2013-08-17 07:30:00,51.1,51.1,29.88,ENE,64,0.0,0.0,100,0.00,,,0.00,Wunderground v.1.12,2013-08-17 14:30:00,
2013-08-17 07:40:00,52.2,52.2,29.88,ENE,64,0.0,0.0,100,0.00,,,0.00,Wunderground v.1.12,2013-08-17 14:40:00,
2013-08-17 07:50:00,53.5,53.5,29.88,ENE,64,0.0,0.0,100,0.00,,,0.00,Wunderground v.1.12,2013-08-17 14:50:00,
2013-08-17 08:00:00,54.7,54.7,29.88,ENE,64,0.0,0.0,100,0.00,,,0.00,Wunderground v.1.12,2013-08-17 15:00:00,
2013-08-17 08:10:00,55.7,55.7,29.88,ENE,64,0.0,0.0,100,0.00,,,0.00,Wunderground v.1.12,2013-08-17 15:10:00,
2013-08-17 08:20:00,56.2,56.2,29.88,North,360,0.0,0.0,100,0.00,,,0.00,Wunderground v.1.12,2013-08-17 15:20:00,
2013-08-17 08:30:00,56.6,56.6,29.88,North,360,0.0,0.0,100,0.00,,,0.00,Wunderground v.1.12,2013-08-17 15:30:00,
2013-08-17 08:40:00,58.0,58.0,29.88,North,360,0.0,0.0,100,0.00,,,0.00,Wunderground v.1.12,2013-08-17 15:40:00,
2013-08-17 08:50:00,58.9,58.9,29.89,North,360,0.0,0.0,100,0.00,,,0.00,Wunderground v.1.12,2013-08-17 15:50:00,
2013-08-17 09:00:00,60.2,60.2,29.89,WNW,285,0.0,0.0,100,0.00,,,0.00,Wunderground v.1.12,2013-08-17 16:00:00,
2013-08-17 09:10:00,61.0,61.0,29.88,SW,228,1.0,1.0,100,0.00,,,0.00,Wunderground v.1.12,2013-08-17 16:10:00,
2013-08-17 09:20:00,62.6,62.6,29.89,South,190,0.0,0.0,100,0.00,,,0.00,Wunderground v.1.12,2013-08-17 16:20:00,
2013-08-17 09:30:00,63.9,63.9,29.89,WNW,301,0.0,0.0,100,0.00,,,0.00,Wunderground v.1.12,2013-08-17 16:30:00,
2013-08-17 09:40:00,64.2,64.2,29.88,WNW,302,0.0,0.0,100,0.00,,,0.00,Wunderground v.1.12,2013-08-17 16:40:00,
2013-08-17 09:50:00,66.0,66.0,29.88,NW,319,0.0,0.0,100,0.00,,,0.00,Wunderground v.1.12,2013-08-17 16:50:00,
2013-08-17 10:00:00,68.3,68.3,29.88,WSW,242,0.0,0.0,100,0.00,,,0.00,Wunderground v.1.12,2013-08-17 17:00:00,
2013-08-17 10:10:00,70.1,70.1,29.88,East,81,0.0,0.0,100,0.00,,,0.00,Wunderground v.1.12,2013-08-17 17:10:00,
2013-08-17 10:20:00,72.7,72.7,29.88,SSW,202,0.0,0.0,100,0.00,,,0.00,Wunderground v.1.12,2013-08-17 17:20:00,
2013-08-17 10:30:00,74.2,74.2,29.88,South,185,0.0,1.0,100,0.00,,,0.00,Wunderground v.1.12,2013-08-17 17:30:00,
2013-08-17 10:40:00,75.4,75.4,29.88,West,267,0.0,3.0,100,0.00,,,0.00,Wunderground v.1.12,2013-08-17 17:40:00,
2013-08-17 10:50:00,75.3,75.3,29.88,WNW,288,1.0,1.0,100,0.00,,,0.00,Wunderground v.1.12,2013-08-17 17:50:00,
2013-08-17 11:00:00,75.6,75.6,29.88,West,279,1.0,1.0,100,0.00,,,0.00,Wunderground v.1.12,2013-08-17 18:00:00,
2013-08-17 11:10:00,76.3,76.3,29.87,WSW,237,3.0,3.0,100,0.00,,,0.00,Wunderground v.1.12,2013-08-17 18:10:00,
2013-08-17 11:20:00,76.7,76.7,29.88,SW,230,3.0,6.0,100,0.00,,,0.00,Wunderground v.1.12,2013-08-17 18:20:00,
2013-08-17 11:30:00,76.7,76.7,29.88,SW,227,4.0,6.0,100,0.00,,,0.00,Wunderground v.1.12,2013-08-17 18:30:00,
2013-08-17 11:40:00,76.3,76.3,29.88,NNE,15,2.0,2.0,100,0.00,,,0.00,Wunderground v.1.12,2013-08-17 18:40:00,
2013-08-17 11:50:00,77.2,77.2,29.88,SSW,201,2.0,4.0,100,0.00,,,0.00,Wunderground v.1.12,2013-08-17 18:50:00,
2013-08-17 12:00:00,76.7,76.7,29.88,SSW,204,3.0,8.0,100,0.00,,,0.00,Wunderground v.1.12,2013-08-17 19:00:00,
2013-08-17 12:10:00,75.8,75.8,29.87,SW,214,6.0,7.0,100,0.00,,,0.00,Wunderground v.1.12,2013-08-17 19:10:00,
2013-08-17 12:20:00,75.8,75.8,29.87,SW,227,6.0,10.0,100,0.00,,,0.00,Wunderground v.1.12,2013-08-17 19:20:00,
2013-08-17 12:30:00,75.6,75.6,29.87,SE,137,3.0,5.0,100,0.00,,,0.00,Wunderground v.1.12,2013-08-17 19:30:00,
2013-08-17 12:40:00,74.2,74.2,29.88,SW,224,2.0,2.0,100,0.00,,,0.00,Wunderground v.1.12,2013-08-17 19:40:00,
2013-08-17 12:50:00,73.3,73.3,29.88,NW,309,1.0,3.0,100,0.00,,,0.00,Wunderground v.1.12,2013-08-17 19:50:00,
2013-08-17 13:00:00,75.8,75.8,29.88,WNW,284,2.0,5.0,100,0.00,,,0.00,Wunderground v.1.12,2013-08-17 20:00:00,
2013-08-17 13:10:00,73.3,73.3,29.88,NW,321,3.0,4.0,100,0.00,,,0.00,Wunderground v.1.12,2013-08-17 20:10:00,
2013-08-17 13:20:00,72.7,72.7,29.87,WSW,237,4.0,4.0,100,0.00,,,0.00,Wunderground v.1.12,2013-08-17 20:20:00,
2013-08-17 13:30:00,73.7,73.7,29.87,NNW,327,6.0,13.0,100,0.00,,,0.00,Wunderground v.1.12,2013-08-17 20:30:00,
2013-08-17 13:40:00,75.8,75.8,29.87,WNW,285,3.0,3.0,100,0.00,,,0.00,Wunderground v.1.12,2013-08-17 20:40:00,
2013-08-17 13:50:00,75.4,75.4,29.87,SW,230,5.0,6.0,100,0.00,,,0.00,Wunderground v.1.12,2013-08-17 20:50:00,
2013-08-17 14:00:00,74.9,74.9,29.87,SSW,194,4.0,4.0,100,0.00,,,0.00,Wunderground v.1.12,2013-08-17 21:00:00,
2013-08-17 14:10:00,74.2,74.2,29.86,West,265,4.0,5.0,100,0.00,,,0.00,Wunderground v.1.12,2013-08-17 21:10:00,
2013-08-17 14:20:00,73.5,73.5,29.86,WNW,292,5.0,5.0,100,0.00,,,0.00,Wunderground v.1.12,2013-08-17 21:20:00,
2013-08-17 14:30:00,74.6,74.6,29.86,SSW,202,2.0,2.0,100,0.00,,,0.00,Wunderground v.1.12,2013-08-17 21:30:00,
2013-08-17 14:40:00,73.3,73.3,29.86,SSW,207,4.0,4.0,100,0.00,,,0.00,Wunderground v.1.12,2013-08-17 21:40:00,
2013-08-17 14:50:00,74.4,74.4,29.85,SW,228,3.0,6.0,100,0.00,,,0.00,Wunderground v.1.12,2013-08-17 21:50:00,
2013-08-17 15:00:00,73.9,73.9,29.85,WSW,243,2.0,6.0,100,0.00,,,0.00,Wunderground v.1.12,2013-08-17 22:00:00,
2013-08-17 15:10:00,73.7,73.7,29.85,SSW,200,4.0,6.0,100,0.00,,,0.00,Wunderground v.1.12,2013-08-17 22:10:00,
2013-08-17 15:20:00,73.5,73.5,29.85,NNW,345,4.0,7.0,100,0.00,,,0.00,Wunderground v.1.12,2013-08-17 22:20:00,
2013-08-17 15:30:00,73.3,73.3,29.85,WNW,292,4.0,5.0,100,0.00,,,0.00,Wunderground v.1.12,2013-08-17 22:30:00,
2013-08-17 15:40:00,71.8,71.8,29.85,SW,234,6.0,8.0,100,0.00,,,0.00,Wunderground v.1.12,2013-08-17 22:40:00,
2013-08-17 15:50:00,71.6,71.6,29.83,WNW,294,5.0,6.0,100,0.00,,,0.00,Wunderground v.1.12,2013-08-17 22:50:00,
2013-08-17 16:00:00,71.8,71.8,29.83,West,277,4.0,4.0,100,0.00,,,0.00,Wunderground v.1.12,2013-08-17 23:00:00,
2013-08-17 16:10:00,72.1,72.1,29.83,West,274,5.0,9.0,100,0.00,,,0.00,Wunderground v.1.12,2013-08-17 23:10:00,
2013-08-17 16:20:00,72.3,72.3,29.83,SSW,192,4.0,9.0,100,0.00,,,0.00,Wunderground v.1.12,2013-08-17 23:20:00,
2013-08-17 16:30:00,71.1,71.1,29.83,SSW,210,6.0,6.0,100,0.00,,,0.00,Wunderground v.1.12,2013-08-17 23:30:00,
2013-08-17 16:40:00,71.6,71.6,29.82,SW,215,4.0,8.0,100,0.00,,,0.00,Wunderground v.1.12,2013-08-17 23:40:00,
2013-08-17 16:50:00,72.0,72.0,29.82,SW,221,3.0,5.0,100,0.00,,,0.00,Wunderground v.1.12,2013-08-17 23:50:00,
2013-08-17 17:00:00,72.5,72.5,29.82,SW,228,3.0,8.0,100,0.00,,,0.00,Wunderground v.1.12,2013-08-18 00:00:00,
2013-08-17 17:10:00,71.6,71.6,29.82,SW,223,4.0,4.0,100,0.00,,,0.00,Wunderground v.1.12,2013-08-18 00:10:00,
2013-08-17 17:20:00,70.9,70.9,29.81,NW,311,5.0,7.0,100,0.00,,,0.00,Wunderground v.1.12,2013-08-18 00:20:00,
2013-08-17 17:30:00,71.1,71.1,29.81,SW,221,4.0,4.0,100,0.00,,,0.00,Wunderground v.1.12,2013-08-18 00:30:00,
2013-08-17 17:40:00,70.1,70.1,29.81,SW,227,6.0,6.0,100,0.00,,,0.00,Wunderground v.1.12,2013-08-18 00:40:00,
2013-08-17 17:50:00,69.9,69.9,29.80,SW,229,6.0,7.0,100,0.00,,,0.00,Wunderground v.1.12,2013-08-18 00:50:00,
2013-08-17 18:00:00,69.3,69.3,29.80,NW,320,5.0,5.0,100,0.00,,,0.00,Wunderground v.1.12,2013-08-18 01:00:00,
2013-08-17 18:10:00,68.6,68.6,29.80,West,263,5.0,5.0,100,0.00,,,0.00,Wunderground v.1.12,2013-08-18 01:10:00,
2013-08-17 18:20:00,68.4,68.4,29.80,SSW,194,3.0,3.0,100,0.00,,,0.00,Wunderground v.1.12,2013-08-18 01:20:00,
2013-08-17 18:30:00,67.8,67.8,29.80,WSW,243,2.0,3.0,100,0.00,,,0.00,Wunderground v.1.12,2013-08-18 01:30:00,
2013-08-17 18:40:00,66.9,66.9,29.80,SSW,207,1.0,1.0,100,0.00,,,0.00,Wunderground v.1.12,2013-08-18 01:40:00,
2013-08-17 18:50:00,66.4,66.4,29.80,SW,218,0.0,0.0,100,0.00,,,0.00,Wunderground v.1.12,2013-08-18 01:50:00,
2013-08-17 19:00:00,66.0,66.0,29.80,SW,231,0.0,0.0,100,0.00,,,0.00,Wunderground v.1.12,2013-08-18 02:00:00,
2013-08-17 19:10:00,65.5,65.5,29.80,SW,217,1.0,1.0,100,0.00,,,0.00,Wunderground v.1.12,2013-08-18 02:10:00,
2013-08-17 19:20:00,65.2,65.2,29.80,WNW,288,1.0,1.0,100,0.00,,,0.00,Wunderground v.1.12,2013-08-18 02:20:00,
2013-08-17 19:30:00,64.3,64.3,29.80,WNW,300,1.0,1.0,100,0.00,,,0.00,Wunderground v.1.12,2013-08-18 02:30:00,
2013-08-17 19:40:00,63.5,63.5,29.80,WNW,300,0.0,0.0,100,0.00,,,0.00,Wunderground v.1.12,2013-08-18 02:40:00,
2013-08-17 19:50:00,62.7,62.7,29.80,SSW,213,0.0,1.0,100,0.00,,,0.00,Wunderground v.1.12,2013-08-18 02:50:00,
2013-08-17 20:00:00,62.1,62.1,29.80,West,281,3.0,3.0,100,0.00,,,0.00,Wunderground v.1.12,2013-08-18 03:00:00,
2013-08-17 20:10:00,61.5,61.5,29.79,West,259,1.0,1.0,100,0.00,,,0.00,Wunderground v.1.12,2013-08-18 03:10:00,
2013-08-17 20:20:00,60.9,60.9,29.80,WNW,287,2.0,2.0,100,0.00,,,0.00,Wunderground v.1.12,2013-08-18 03:20:00,
2013-08-17 20:30:00,60.5,60.5,29.80,WNW,292,1.0,1.0,100,0.00,,,0.00,Wunderground v.1.12,2013-08-18 03:30:00,
2013-08-17 20:40:00,60.1,60.1,29.80,WNW,294,0.0,0.0,100,0.00,,,0.00,Wunderground v.1.12,2013-08-18 03:40:00,
2013-08-17 20:50:00,59.8,59.8,29.80,WNW,294,0.0,0.0,100,0.00,,,0.00,Wunderground v.1.12,2013-08-18 03:50:00,
2013-08-17 21:00:00,59.3,59.3,29.80,WSW,252,0.0,0.0,100,0.00,,,0.00,Wunderground v.1.12,2013-08-18 04:00:00,
2013-08-17 21:03:00,59.3,59.3,29.80,North,-999,0.0,0.0,100,0.00,,,-99.99,WeatherLink 5.8.2,2013-08-18 04:03:00,
2013-08-17 21:10:00,59.5,59.5,29.80,West,262,0.0,0.0,100,0.00,,,0.00,Wunderground v.1.12,2013-08-18 04:10:00,
2013-08-17 21:13:00,59.5,59.5,29.80,North,-999,0.0,0.0,100,0.00,,,-99.99,WeatherLink 5.8.2,2013-08-18 04:13:00,
2013-08-17 21:20:00,59.2,59.2,29.81,West,262,0.0,0.0,100,0.00,,,0.00,Wunderground v.1.12,2013-08-18 04:20:00,
2013-08-17 21:30:00,58.9,58.9,29.81,West,259,0.0,0.0,100,0.00,,,0.00,Wunderground v.1.12,2013-08-18 04:30:00,
2013-08-17 21:40:00,58.6,58.6,29.81,West,259,0.0,0.0,100,0.00,,,0.00,Wunderground v.1.12,2013-08-18 04:40:00,
2013-08-17 21:50:00,58.6,58.6,29.81,West,259,0.0,0.0,100,0.00,,,0.00,Wunderground v.1.12,2013-08-18 04:50:00,
2013-08-17 22:00:00,58.1,58.1,29.81,West,259,0.0,0.0,100,0.00,,,0.00,Wunderground v.1.12,2013-08-18 05:00:00,
2013-08-17 22:10:00,58.1,58.1,29.81,West,259,0.0,0.0,100,0.00,,,0.00,Wunderground v.1.12,2013-08-18 05:10:00,
2013-08-17 22:20:00,58.1,58.1,29.81,West,259,0.0,0.0,100,0.00,,,0.00,Wunderground v.1.12,2013-08-18 05:20:00,
2013-08-17 22:30:00,58.1,58.1,29.81,West,259,0.0,0.0,100,0.00,,,0.00,Wunderground v.1.12,2013-08-18 05:30:00,
2013-08-17 22:40:00,58.3,58.3,29.81,West,259,0.0,0.0,100,0.00,,,0.00,Wunderground v.1.12,2013-08-18 05:40:00,
2013-08-17 22:50:00,58.3,58.3,29.80,West,261,0.0,0.0,100,0.00,,,0.00,Wunderground v.1.12,2013-08-18 05:50:00,
2013-08-17 23:00:00,58.1,58.1,29.80,West,261,0.0,0.0,100,0.00,,,0.00,Wunderground v.1.12,2013-08-18 06:00:00,
2013-08-17 23:10:00,57.8,57.8,29.80,West,261,0.0,0.0,100,0.00,,,0.00,Wunderground v.1.12,2013-08-18 06:10:00,
2013-08-17 23:20:00,57.6,57.6,29.80,West,261,0.0,0.0,100,0.00,,,0.00,Wunderground v.1.12,2013-08-18 06:20:00,
2013-08-17 23:30:00,57.8,57.8,29.80,West,261,0.0,0.0,100,0.00,,,0.00,Wunderground v.1.12,2013-08-18 06:30:00,
2013-08-17 23:40:00,57.6,57.6,29.79,West,261,0.0,0.0,100,0.00,,,0.00,Wunderground v.1.12,2013-08-18 06:40:00,
2013-08-17 23:50:00,57.3,57.3,29.79,West,261,0.0,0.0,100,0.00,,,0.00,Wunderground v.1.12,2013-08-18 06:50:00,